Location: Kershaw
(34.5481°N, 80.5823°W)
Time: 15:52:11
(UTC+00:00)

Transit 2A - Pass Details

Date: 04 October 2022
Orbit: 598 x 959 km, 66.7° (Epoch: 06 December)

Event Time Altitude Azimuth Distance (km) Brightness Sun altitude
Rises 03:15:14 0° 195° (SSW) 2,987 - -49.6°
Reaches altitude 10° 03:17:37 10° 190° (S) 2,033 - -49.9°
Maximum altitude 03:22:02 54° 114° (ESE) 747 - -50.6°
Drops below altitude 10° 03:26:16 10° 36° (NE) 1,945 - -51.2°
Sets 03:28:31 0° 32° (NNE) 2,844 - -51.5°
